RH
14 16 18 18 22 24 25 24 21 28 31 46 41 62 41 58 66 77 86 69 67 66 71 69 73 73 75 73 71 68 63 51 36 31 33 30 39 37 37 35 37 36 33 31 31 30 29 26 24
17 17 18 21 23 25 22 22 25 27 43 66 47 52 64 79 69 73 76 68 63 69 75 75 79 78 76 75 73 69 60 46 34 35 36 34 33 36 35 38 41 41 38 36 37 34 30 29 27
15 18 23 33 32 22 28 33 33 40 49 43 60 52 64 68 64 74 79 77 67 79 82 79 81 82 77 76 73 65 57 43 35 38 41 39 35 37 39 41 43 46 43 40 40 36 34 32 31
20 26 26 19 26 23 27 29 31 39 43 42 67 83 53 62 67 70 88 91 79 74 79 78 77 79 79 75 68 63 53 41 39 44 45 44 38 39 40 46 47 47 41 43 43 40 37 37 35
17 23 25 32 25 27 26 24 37 47 57 58 51 65 62 58 58 60 69 97 95 92 85 84 79 80 73 68 65 57 51 44 43 48 47 42 46 42 45 46 49 46 45 44 43 45 42 40 32
26 21 30 27 25 28 32 37 48 47 47 53 52 80 77 59 72 77 78 75 91 95 92 81 78 78 75 72 65 58 50 51 49 51 49 49 50 47 50 53 49 44 44 46 50 48 44 36 32
24 29 32 33 42 56 66 45 56 49 48 45 78 62 80 72 76 72 72 77 86 93 84 81 82 86 77 70 62 57 61 54 49 53 53 57 52 51 52 51 44 44 47 51 48 46 39 31 28
24 27 36 40 42 63 46 46 45 45 70 48 62 65 73 73 81 81 80 83 91 91 94 94 92 89 83 75 67 65 53 55 54 61 62 58 54 53 54 48 47 48 47 47 51 49 37 27 28
20 33 46 39 36 42 39 45 67 52 51 60 64 66 70 77 74 77 82 87 90 87 86 88 93 92 88 80 73 59 56 61 67 68 66 61 60 64 60 54 51 44 46 54 53 46 30 28 27
24 35 41 36 44 47 48 49 63 59 70 63 65 64 66 71 74 79 85 85 88 86 87 92 94 91 88 83 78 75 72 75 78 75 68 71 69 66 65 60 49 45 52 58 49 37 30 31 30
32 45 42 42 43 43 47 57 57 63 88 85 76 72 74 80 79 77 80 81 85 94 92 89 92 86 93 82 84 88 86 90 78 78 76 78 70 72 65 58 46 54 58 54 46 32 34 29 30
32 36 34 38 36 47 55 43 46 62 65 65 80 79 78 77 79 82 83 82 83 86 88 92 98 94 89 93 94 94 96 86 79 78 80 73 73 72 67 61 57 59 58 49 42 30 28 28 26
33 39 42 41 39 47 55 59 54 57 70 67 78 77 73 78 79 78 79 81 85 88 93 96 93 96 92 94 98 96 90 81 79 80 76 71 74 71 68 64 60 60 54 45 32 29 32 29 27
40 33 38 41 48 54 55 60 53 55 61 68 66 73 81 85 85 88 86 86 88 95 94 98 99 98 99 97 91 87 82 81 83 76 69 69 68 63 63 59 57 54 45 39 33 33 32 32 30
34 35 37 35 47 55 53 66 61 55 62 61 54 63 75 79 84 80 74 73 82 89 94 97 97 95 89 84 87 85 82 81 73 66 60 62 63 60 61 56 51 47 42 37 34 32 33 34 33
32 37 49 57 51 54 57 88 52 53 55 57 49 52 58 67 74 68 59 60 70 71 71 71 68 71 65 66 72 76 69 68 62 71 63 60 64 61 53 50 46 43 37 36 34 35 37 38 40
33 42 57 53 45 53 60 85 53 53 53 61 51 52 55 53 56 54 55 53 54 55 57 64 68 66 71 69 64 59 50 52 62 67 68 69 70 59 48 46 43 39 37 37 36 38 40 42 46
40 35 38 44 51 46 60 56 49 50 52 57 47 42 42 45 41 50 46 48 49 50 51 61 74 77 74 68 56 52 52 55 70 77 75 73 66 51 45 49 40 40 40 36 38 44 47 50 50
46 41 42 49 58 42 50 51 63 48 53 44 49 45 42 41 40 40 51 48 51 50 46 48 48 56 64 68 59 56 53 61 80 80 79 67 55 49 48 49 45 42 40 49 52 52 52 55 51
36 39 37 46 39 32 42 48 60 53 49 53 49 41 44 40 40 40 41 52 54 51 51 54 54 54 58 55 58 55 56 61 67 72 75 66 58 52 49 54 50 52 53 56 55 55 59 59 59
38 40 45 41 48 32 33 41 46 50 45 53 52 53 44 42 41 37 40 46 49 54 53 58 59 61 63 65 63 55 53 62 66 62 68 68 66 67 60 57 56 59 58 56 56 61 63 62 67
42 35 50 40 34 43 41 49 46 45 44 45 50 53 53 41 42 42 38 38 38 40 44 47 53 56 58 61 61 59 63 63 67 69 73 76 78 77 74 73 65 62 63 62 65 65 65 65 74
45 53 44 46 44 45 39 37 42 38 46 45 42 50 47 49 41 37 36 35 33 35 38 42 47 49 55 54 56 60 64 66 70 68 67 70 75 78 77 77 78 84 86 78 71 67 67 70 83
43 42 43 47 48 50 44 37 49 40 38 45 53 47 49 48 50 47 41 37 38 40 39 42 48 49 54 60 64 62 68 71 76 80 81 77 76 76 81 83 91 95 92 88 87 77 73 80 95
40 43 49 53 51 48 45 38 39 49 39 39 41 48 56 52 52 55 57 55 57 54 48 51 53 54 58 62 69 67 68 77 77 77 78 82 81 82 88 93 95 96 95 91 91 92 93 94 94
42 42 46 72 71 54 49 35 31 38 41 37 33 34 37 53 53 54 56 60 62 61 64 65 65 68 69 74 70 77 69 76 79 73 75 76 85 90 97 88 91 92 93 90 95 93 95 95 98
47 49 37 45 49 50 52 40 36 38 33 32 34 35 34 32 41 52 56 59 64 65 66 64 68 70 73 72 81 85 76 75 75 68 63 68 71 78 85 91 88 89 90 92 95 97 92 94 96
39 51 50 50 68 59 42 39 42 35 32 32 27 35 34 37 40 43 50 56 63 64 67 64 66 71 74 75 81 90 85 75 72 64 61 65 75 73 73 80 82 84 89 93 97 96 93 93 86
39 41 46 50 48 57 51 44 41 40 34 36 37 34 30 33 38 41 42 44 48 53 56 59 63 67 69 70 72 70 74 73 68 59 60 70 64 64 63 67 72 72 80 84 93 88 86 80 76
49 48 49 53 57 56 54 49 45 41 38 39 33 35 31 30 35 39 41 45 44 45 48 50 53 53 59 65 64 66 63 54 52 68 70 70 69 70 65 61 60 63 71 78 84 80 82 84 82